Location: Hillern
(53.0557°N, 9.8577°E)
Time: 23:27:22
(UTC+00:00)

Terra - Pass Details

Date: 19 May 2025
Orbit: 690 x 692 km, 98.0° (Epoch: 15 June)

Event Time Altitude Azimuth Distance (km) Brightness Sun altitude
Exits shadow 20:50:06 - 193° (SSW) 2,828 4.5 -10.4°
Reaches altitude 10° 20:51:57 10° 201° (SSW) 2,140 4.0 -10.5°
Maximum altitude 20:56:09 32° 265° (W) 1,178 3.3 -10.9°
Drops below altitude 10° 21:00:23 10° 329° (NNW) 2,155 5.9 -11.2°
Sets 21:02:52 0° 339° (NNW) 3,077 7.0 -11.4°
